Location: Prostejov
(49.4670°N, 17.1170°E)
Time: 10:27:55
(UTC+02:00)

ISS - Pass Details

Date: 21 May 2021
Orbit: 417 x 422 km, 51.6° (Epoch: 13 June)

Event Time Altitude Azimuth Distance (km) Brightness Sun altitude
Rises 22:08:19 0° 273° (W) 2,364 0.7 -11.7°
Reaches altitude 10° 22:10:26 10° 277° (W) 1,501 -0.3 -11.9°
Maximum altitude 22:13:45 57° 357° (N) 500 -3.1 -12.2°
Drops below altitude 10° 22:17:05 10° 78° (ENE) 1,504 -1.2 -12.5°
Enters shadow 22:18:23 - 81° (E) 2,026 -0.6 -12.7°
